Location: Unspecified
(0.0000°N, 0.0000°E)
Time: 11:38:48
(UTC+00:00)

Vanguard 3 - Pass Details

Date: 20 November 2019
Orbit: 508 x 3263 km, 33.3° (Epoch: 07 December)

Event Time Altitude Azimuth Distance (km) Brightness Sun altitude
Rises 08:39:53 0° 221° (SW) 4,388 10.8 40.5°
Reaches altitude 10° 08:42:25 10° 216° (SW) 3,710 10.5 41.1°
Maximum altitude 08:52:33 55° 140° (SE) 2,580 11.5 43.3°
Drops below altitude 10° 09:09:20 10° 67° (ENE) 5,936 12.1 47.0°
Sets 09:14:38 0° 64° (ENE) 7,137 12.3 48.1°
